Location: Newark
(35.5300°N, 14.3000°E)
Time: 19:30:31
(UTC+00:00)

Transit 4A - Pass Details

Date: 29 November 2019
Orbit: 872 x 973 km, 66.8° (Epoch: 28 January)

Event Time Altitude Azimuth Distance (km) Brightness Sun altitude
Exits shadow 05:11:04 - 303° (WNW) 2,579 9.6 -8.4°
Reaches altitude 10° 05:11:16 10° 301° (WNW) 2,527 9.5 -8.3°
Maximum altitude 05:15:28 21° 255° (WSW) 1,862 9.1 -7.5°
Drops below altitude 10° 05:19:39 10° 208° (SSW) 2,511 10.1 -6.8°
Sets 05:22:43 0° 192° (SSW) 3,449 11.0 -6.2°
